Temperature
10 10 10 10 10 10 10 10 9 9 8 9 8 8 8 8 8 7 7 7 6 6 6 5 5 4 4 3 3 2 2 1 1 0 -0 -0 -1 -1
10 10 10 9 9 10 10 9 9 9 9 8 8 8 8 8 7 7 7 6 6 6 5 5 4 4 3 3 2 1 1 1 0 -0 -0 -1 -1 -1
10 10 10 9 9 9 9 9 9 9 8 8 8 8 8 7 7 7 6 6 6 5 5 4 4 3 3 2 1 1 1 0 -0 -1 -1 -1 -2 -2
10 10 10 9 9 9 9 9 9 9 8 8 8 8 7 7 7 6 6 5 5 5 4 4 3 3 2 1 1 0 0 -0 -1 -1 -1 -2 -2 -2
10 10 10 9 9 9 9 9 9 9 8 8 8 7 7 7 6 6 6 5 5 4 4 3 3 2 2 1 0 0 -0 -1 -1 -1 -2 -2 -3 -3
10 10 10 10 9 9 9 9 9 8 8 8 7 7 7 6 6 5 5 5 5 4 3 3 2 2 1 1 0 -0 -1 -1 -1 -2 -2 -2 -3 -3
10 10 10 9 9 9 9 9 8 8 8 7 7 6 6 6 5 5 5 5 4 4 3 3 2 2 1 1 0 -0 -1 -1 -2 -2 -3 -3 -3 -4
10 10 9 9 9 9 8 8 8 8 8 7 7 6 6 5 5 5 4 4 3 3 3 3 2 1 1 0 -0 -1 -1 -2 -2 -3 -3 -3 -4 -4
10 10 9 9 9 8 8 8 8 7 7 7 7 6 6 5 5 4 4 3 3 2 2 2 2 1 1 0 -1 -1 -2 -2 -3 -3 -3 -4 -4 -4
10 10 9 9 9 8 8 8 7 7 7 6 6 6 5 5 4 4 3 3 2 2 1 1 1 1 0 -0 -1 -1 -2 -2 -3 -3 -4 -4 -4 -5
9 9 9 9 9 8 8 8 7 7 6 6 5 5 5 4 4 3 2 2 2 1 1 -0 -0 -0 0 -0 -1 -2 -2 -2 -3 -3 -4 -4 -4 -5
9 9 9 8 8 8 8 7 7 7 6 6 5 5 4 4 3 3 2 2 1 0 -0 -1 -1 -2 -1 -1 -1 -2 -2 -3 -3 -3 -4 -4 -5 -5
9 9 8 8 8 8 7 7 7 6 6 5 5 4 4 3 3 2 2 1 0 -0 -1 -2 -2 -2 -3 -3 -1 -2 -2 -3 -3 -3 -4 -4 -5 -5
9 9 8 8 8 7 7 7 6 6 5 5 4 4 3 3 2 2 1 1 -0 -1 -1 -2 -3 -3 -3 -4 -3 -2 -3 -3 -3 -4 -4 -4 -4 -5
9 8 8 8 7 7 7 6 6 5 5 5 4 3 3 2 2 1 1 0 -0 -1 -1 -2 -3 -3 -3 -4 -4 -4 -4 -3 -4 -4 -4 -4 -5 -5
8 7 7 7 7 6 6 6 5 5 4 4 4 3 2 2 1 1 0 -0 -0 -1 -2 -2 -3 -3 -3 -3 -4 -4 -4 -5 -4 -4 -4 -4 -5 -5
8 7 7 7 6 6 6 5 5 4 4 4 3 2 2 1 1 0 -0 -0 -1 -1 -2 -2 -2 -3 -3 -3 -3 -4 -4 -4 -5 -5 -5 -4 -5 -5
7 7 7 6 6 6 6 5 4 4 4 3 2 2 1 1 0 -0 -0 -1 -1 -2 -2 -2 -2 -2 -2 -3 -4 -4 -4 -4 -4 -5 -5 -5 -5 -5
7 7 7 6 6 6 5 5 4 4 3 3 2 1 1 1 0 -0 -1 -1 -2 -2 -3 -3 -3 -4 -4 -4 -4 -4 -5 -5 -4 -4 -5 -5 -5 -5
7 7 6 6 6 5 5 5 4 3 3 2 2 1 1 0 -0 -1 -1 -2 -2 -2 -3 -3 -4 -4 -5 -5 -5 -4 -5 -5 -5 -5 -5 -5 -5 -5
6 6 6 6 5 5 5 4 4 3 2 2 2 1 0 -0 -1 -1 -1 -2 -2 -3 -3 -3 -4 -4 -4 -5 -5 -4 -4 -5 -5 -5 -5 -5 -5 -5
6 6 6 5 5 5 5 4 3 3 2 2 1 1 0 -0 -1 -1 -2 -2 -3 -3 -3 -3 -4 -4 -4 -4 -5 -5 -4 -4 -5 -5 -5 -6 -6 -6
6 6 5 5 5 5 4 4 3 2 2 1 1 0 -0 -0 -1 -1 -2 -2 -3 -3 -3 -4 -4 -4 -4 -5 -5 -5 -5 -5 -5 -5 -5 -5 -6 -6
Wind_Speed
10 9 7 5 5 4 4 5 5 3 3 4 3 4 6 7 6 4 4 7 7 8 9 9 9 10 11 12 12 13 14 14 15 16 17 18 19 20
9 10 8 6 5 5 4 4 4 4 3 2 2 3 4 4 5 4 5 6 6 7 8 8 9 9 10 11 11 12 13 14 14 16 17 18 19 19
11 11 10 8 7 6 5 4 4 4 4 2 1 2 2 2 1 2 3 4 5 6 7 8 8 9 10 10 10 11 12 13 14 16 17 18 18 19
14 12 11 9 9 7 6 6 5 4 4 4 1 1 1 2 1 1 2 3 4 6 7 8 9 10 10 10 10 10 11 13 14 15 16 17 18 19
15 14 13 12 10 7 7 6 5 4 3 3 2 1 1 1 0 1 1 2 4 5 6 7 9 9 9 10 10 10 11 12 13 15 16 16 17 18
13 13 13 13 12 11 9 8 6 5 4 3 2 1 1 1 1 0 2 2 3 3 4 6 8 9 9 10 9 10 11 12 13 14 15 16 16 17
12 12 12 13 14 12 9 9 8 6 5 4 3 2 1 1 1 1 1 2 3 1 3 4 4 4 6 8 8 10 11 11 12 14 15 15 16 17
12 11 11 12 13 14 13 12 11 9 7 5 4 3 3 2 2 1 0 1 2 2 2 4 2 3 4 5 9 10 10 11 13 14 14 15 16 17
12 12 10 10 12 10 11 11 9 9 9 7 5 5 4 3 3 1 1 1 2 2 2 3 2 3 4 7 10 10 11 12 13 13 14 15 16 17
12 13 12 12 12 12 10 8 6 5 6 5 5 4 4 3 4 3 2 0 1 2 2 2 3 4 5 6 8 10 12 13 13 14 15 15 16 16
11 12 13 13 16 17 12 10 8 5 7 10 9 8 7 6 4 3 2 2 1 1 2 1 2 4 4 3 6 10 12 13 14 14 15 16 16 15
9 10 15 15 19 19 13 12 11 8 7 7 6 6 5 5 5 4 3 2 0 1 1 2 2 3 4 3 4 6 8 12 14 15 16 16 17 10
10 9 10 18 19 19 15 11 12 11 8 7 5 4 3 3 3 3 3 2 2 2 1 1 1 2 2 4 4 4 5 7 9 10 13 16 17 12
10 9 10 19 19 17 13 14 16 13 8 7 5 4 3 2 2 2 2 2 1 2 2 1 1 2 3 4 5 5 6 6 5 5 7 14 14 15
9 14 16 19 17 13 16 17 14 9 7 6 6 4 3 3 2 2 2 3 3 2 1 1 1 2 2 3 4 5 5 5 5 5 6 6 6 7
11 15 18 17 13 13 13 10 7 7 7 6 6 4 4 3 2 1 1 1 2 3 3 4 3 2 3 4 5 6 5 5 6 7 7 6 7 7
13 10 9 10 9 8 7 7 7 7 6 5 6 5 4 3 2 2 1 1 1 1 3 3 5 5 4 4 3 4 5 5 6 6 7 7 6 6
15 11 10 9 10 10 9 8 6 7 6 6 6 5 5 4 3 2 2 1 1 1 2 3 4 4 4 3 3 3 4 4 6 6 5 6 7 6
11 10 10 10 9 9 9 8 7 6 6 7 6 6 5 4 3 2 2 1 1 1 1 2 2 3 4 5 5 3 3 6 7 6 5 4 6 8
9 10 10 9 9 9 9 8 8 7 7 6 6 6 5 5 4 3 2 1 1 1 2 2 2 2 2 3 4 5 8 6 6 6 5 4 5 8
9 9 9 9 9 9 9 9 9 8 8 7 6 6 5 5 4 3 2 1 2 1 1 2 3 5 2 2 3 5 5 9 8 5 5 5 4 4
9 9 9 9 9 10 9 9 9 8 8 7 6 6 5 5 4 4 3 2 0 1 1 2 3 2 2 2 4 5 6 7 10 11 8 5 3 3
10 9 9 9 9 9 9 10 10 8 8 7 7 6 6 5 4 3 2 2 1 1 2 2 3 2 2 2 3 4 6 6 6 6 6 11 11 9
Wind_Direction
186 184 182 181 177 175 164 157 161 187 219 212 187 184 176 176 190 205 236 261 268 277 284 290 295 300 305 309 312 314 316 319 321 321 322 323 324 326
182 181 182 179 174 171 168 166 162 169 201 206 181 168 158 170 196 212 243 264 269 280 287 292 296 301 306 308 309 313 317 319 322 322 323 323 324 326
183 183 184 177 174 173 165 164 169 161 192 230 156 130 144 171 183 216 243 252 265 279 289 295 299 303 306 306 309 314 318 320 321 322 323 324 326 326
184 183 184 179 175 172 170 174 177 171 173 202 212 150 166 178 176 235 256 267 270 280 290 296 302 305 306 307 311 315 318 320 322 323 324 325 326 327
184 185 183 178 181 176 172 175 176 171 167 175 199 181 140 130 100 301 294 296 293 296 297 304 306 309 308 309 312 316 318 320 322 324 325 327 328 328
183 183 183 183 182 177 177 177 170 168 167 169 189 189 169 107 107 288 309 307 310 310 318 315 311 309 307 311 313 315 317 319 323 326 328 330 330 329
180 181 181 179 178 176 176 174 170 170 169 174 185 178 182 161 202 205 274 307 304 335 326 305 300 297 299 307 310 312 317 320 323 326 328 330 330 329
179 176 174 173 174 172 169 169 170 175 181 180 186 191 206 190 167 148 183 343 298 318 332 303 295 298 293 297 310 316 320 323 325 328 329 330 330 330
177 175 173 173 167 166 161 159 167 173 175 175 180 192 180 179 158 168 212 241 252 284 338 295 307 302 303 315 318 321 326 329 330 330 331 332 332 332
178 176 171 168 168 161 156 154 151 149 154 152 157 155 146 147 162 175 188 312 332 344 32 295 307 309 316 311 321 332 335 334 334 335 336 336 335 335
174 172 169 169 166 159 158 154 144 135 120 122 121 121 125 124 121 110 92 64 330 309 12 356 312 319 314 310 321 333 335 335 337 339 339 338 336 338
168 170 171 169 165 163 165 162 162 159 142 130 117 106 101 102 102 115 143 128 79 279 338 7 336 349 324 308 318 324 329 333 336 336 337 338 339 339
172 172 173 165 164 166 164 167 166 154 146 140 134 124 108 99 90 88 105 138 161 243 273 9 328 335 307 307 310 314 324 324 322 324 334 338 339 340
171 166 163 160 160 159 157 153 147 141 139 140 142 146 145 133 104 94 91 88 138 219 242 241 264 285 308 309 300 310 318 316 317 320 325 332 335 335
158 154 151 150 148 150 148 146 144 143 145 148 154 158 148 140 120 89 59 54 29 359 312 286 260 280 278 281 291 301 314 316 321 330 326 323 320 322
140 140 139 139 140 142 145 146 146 150 151 151 147 139 129 125 117 104 69 36 25 1 359 349 314 277 283 278 278 289 301 302 320 328 326 321 319 318
139 135 139 143 147 147 143 141 143 146 144 139 139 137 134 130 113 96 82 53 49 344 339 340 335 313 271 260 282 288 298 307 314 325 330 326 317 315
140 149 153 155 157 157 154 150 150 152 149 144 144 144 146 144 130 97 68 66 47 1 334 333 346 353 354 325 259 285 305 308 319 322 324 322 320 320
146 154 157 159 159 157 155 153 154 151 146 144 145 147 146 144 137 127 101 65 39 1 326 334 356 10 356 334 311 298 311 317 323 322 317 313 307 310
154 156 158 158 158 156 154 150 147 144 143 145 145 147 148 144 140 141 139 114 56 360 341 339 342 337 316 299 296 295 306 312 316 317 314 308 297 302
154 152 152 152 153 151 150 149 149 148 147 148 148 148 148 142 141 141 139 99 65 23 324 309 298 323 312 306 314 314 310 322 324 313 312 318 322 331
153 151 150 148 149 148 147 146 145 146 148 147 147 146 145 144 144 143 144 138 118 312 314 313 319 336 353 340 326 320 322 330 339 341 335 323 328 338
151 148 146 148 148 147 146 146 146 148 151 149 147 146 145 141 138 136 132 125 111 48 13 354 351 351 341 326 322 322 327 333 336 344 346 351 353 347
Height
1477 1481 1485 1489 1492 1495 1497 1498 1500 1500 1501 1502 1502 1502 1502 1502 1502 1500 1499 1497 1496 1494 1491 1489 1487 1484 1481 1478 1475 1472 1469 1466 1462 1459 1456 1452 1449 1445
1472 1476 1480 1484 1487 1490 1492 1494 1496 1497 1498 1498 1499 1499 1499 1499 1498 1497 1495 1494 1492 1490 1487 1485 1482 1480 1477 1474 1471 1468 1465 1461 1458 1455 1451 1448 1445 1441
1466 1470 1474 1479 1482 1485 1487 1490 1492 1493 1494 1495 1495 1495 1495 1495 1494 1493 1491 1490 1488 1486 1483 1481 1478 1476 1473 1470 1467 1464 1461 1457 1454 1451 1447 1444 1440 1437
1460 1464 1469 1473 1476 1480 1482 1485 1487 1489 1490 1490 1491 1491 1491 1491 1490 1489 1487 1486 1484 1482 1479 1477 1474 1472 1469 1466 1463 1460 1457 1453 1450 1447 1443 1440 1436 1433
1454 1458 1463 1467 1471 1474 1477 1480 1482 1484 1485 1486 1487 1487 1487 1487 1486 1485 1483 1482 1480 1478 1475 1473 1470 1468 1465 1462 1459 1456 1453 1450 1446 1443 1439 1436 1432 1429
1449 1453 1457 1461 1465 1469 1472 1475 1477 1479 1481 1482 1482 1483 1483 1482 1481 1480 1479 1478 1476 1474 1472 1469 1467 1464 1461 1458 1455 1452 1449 1446 1443 1439 1436 1432 1428 1425
1443 1448 1452 1456 1460 1464 1467 1470 1472 1474 1476 1477 1478 1478 1478 1478 1477 1476 1475 1473 1472 1470 1468 1466 1463 1460 1457 1454 1451 1449 1446 1443 1439 1436 1432 1429 1425 1421
1438 1442 1447 1451 1456 1459 1462 1465 1468 1470 1471 1472 1473 1473 1473 1474 1473 1472 1471 1469 1467 1466 1464 1462 1459 1456 1453 1450 1448 1446 1443 1440 1436 1433 1429 1425 1422 1418
1432 1437 1441 1446 1450 1454 1458 1461 1463 1465 1467 1468 1469 1469 1470 1470 1470 1469 1467 1466 1464 1462 1460 1457 1455 1452 1450 1447 1445 1443 1440 1436 1433 1430 1426 1423 1419 1415
1427 1432 1436 1441 1445 1449 1453 1456 1458 1460 1462 1464 1465 1466 1466 1467 1466 1466 1465 1463 1462 1459 1457 1454 1451 1449 1447 1445 1442 1439 1437 1433 1430 1427 1423 1419 1416 1412
1423 1427 1431 1436 1440 1445 1449 1451 1454 1456 1458 1460 1461 1462 1463 1463 1462 1462 1461 1459 1457 1456 1454 1451 1448 1445 1443 1442 1439 1436 1433 1430 1427 1424 1420 1416 1413 1409
1418 1422 1427 1431 1436 1440 1443 1446 1449 1452 1454 1456 1457 1458 1459 1459 1459 1458 1457 1456 1454 1453 1451 1449 1446 1443 1440 1438 1437 1434 1431 1428 1424 1421 1417 1414 1410 1406
1412 1417 1422 1427 1431 1435 1439 1442 1445 1448 1450 1452 1453 1454 1455 1455 1455 1455 1454 1454 1452 1451 1450 1447 1445 1442 1440 1436 1433 1431 1428 1425 1422 1418 1415 1411 1407 1404
1408 1413 1418 1423 1427 1431 1435 1438 1441 1444 1446 1448 1449 1450 1451 1452 1452 1452 1452 1451 1450 1449 1447 1445 1443 1441 1438 1434 1431 1428 1426 1423 1419 1416 1412 1409 1406 1402
1404 1409 1414 1419 1423 1427 1431 1434 1437 1440 1442 1444 1445 1447 1448 1449 1450 1450 1449 1449 1448 1446 1445 1443 1441 1439 1436 1433 1430 1426 1423 1420 1417 1414 1410 1407 1403 1400
1400 1406 1410 1415 1419 1423 1427 1430 1433 1436 1438 1440 1442 1444 1445 1446 1446 1447 1446 1446 1445 1444 1443 1441 1439 1437 1434 1431 1429 1425 1423 1419 1416 1412 1409 1405 1402 1399
1395 1401 1405 1410 1414 1418 1422 1426 1429 1432 1435 1437 1439 1441 1442 1443 1444 1444 1444 1443 1442 1441 1439 1438 1436 1434 1432 1430 1427 1424 1421 1418 1415 1411 1407 1404 1401 1398
1392 1396 1400 1405 1410 1414 1418 1422 1425 1428 1431 1434 1436 1438 1439 1440 1441 1441 1441 1441 1440 1439 1437 1436 1434 1432 1430 1427 1426 1423 1420 1417 1413 1410 1406 1403 1399 1397
1388 1392 1396 1401 1406 1410 1414 1418 1422 1425 1428 1431 1433 1435 1436 1438 1438 1439 1439 1439 1438 1437 1436 1434 1432 1430 1427 1425 1424 1422 1419 1415 1412 1409 1406 1403 1399 1396
1383 1388 1393 1398 1403 1407 1411 1415 1419 1422 1425 1428 1430 1432 1434 1435 1436 1437 1437 1437 1436 1436 1434 1433 1431 1429 1428 1426 1423 1421 1419 1415 1411 1408 1405 1402 1399 1397
1380 1385 1390 1395 1399 1404 1408 1412 1416 1419 1422 1425 1427 1429 1431 1433 1434 1435 1435 1435 1435 1434 1433 1432 1431 1430 1428 1426 1423 1420 1418 1415 1412 1408 1405 1401 1398 1395
1377 1382 1387 1392 1397 1401 1405 1409 1413 1417 1420 1422 1425 1427 1429 1430 1432 1433 1433 1433 1433 1433 1432 1431 1430 1429 1427 1425 1422 1420 1417 1415 1412 1409 1406 1403 1400 1396
1375 1380 1385 1390 1394 1399 1403 1407 1410 1414 1417 1420 1422 1425 1427 1429 1430 1431 1432 1432 1432 1432 1431 1430 1429 1428 1426 1424 1422 1420 1417 1414 1412 1409 1406 1404 1402 1399